Current Conditions
Mostly Clear
Conditions



Pressure
1015.92 (hPa) - 30 (inHG)
Visibility

10.0 (km) - 6.2 (miles)
Temperature
16  °C
Temperature
8  °C
Dewpoint
59  %
 Humidity
Wind Speed
0.4  m/s
1  mph
2  km/h
1  kts
Wind Direction
N
45°
E
90°
135°
S
180°
225°
W
270°
315°
Calm

Due North
Airport Data
EFHK
Helsinki Vantaa Airport
Metar :EFHK 050550Z VRB01KT CAVOK 16/08 Q1016 NOSIG
Thu 5th August 08:50 am
Raw Metar Info
Raw METAR is the most common format in the world for the transmission of observational weather data. It is highly standardized through the International Civil Aviation Organization (ICAO), which allows it to be understood throughout most of the world.
API Info
Data Provided by
https://www.checkwx.com/weather/EFHK

Aviation Weather providing METAR, TAF, AIRMET, SIGMET and OUTLOOK Weather Reports
© Info
CSS/SVG/PHP scripts were developed by weather34.com for use in the weather34 template © 2015-2021

Guide Info provided by Metar-Wikipedia